Regional Weather Roundup
Issued by NWS

Home | Current Version | Previous Version | Graphics & Text | Print | Product List | Glossary On
Versions: 1 2 3 4 5 6 7 8 9 10 11 12 13 14 15 16 17 18 19 20 21 22 23 24 25 26 27 28 29 30 31 32 33 34 35 36 37 38 39 40 41 42 43 44 45 46 47 48 49 50
000
ASUS43 KIND 020509
RWRIN

WEATHER ROUNDUP FOR INDIANA
NATIONAL WEATHER SERVICE INDIANAPOLIS IN
100 AM EDT MON MAY 02 2016

NOTE: "FAIR" INDICATES FEW OR NO CLOUDS BELOW 12,000 FEET WITH NO
SIGNIFICANT WEATHER AND/OR OBSTRUCTIONS TO VISIBILITY.

* - STATION DOES NOT REPORT WEATHER SUCH AS PRECIPITATION OR FOG.

+ - STATION NOT QUALITY CONTROLLED BY THE NATIONAL WEATHER SERVICE.
    USE DATA WITH CAUTION...ESPECIALLY DEWPOINT AND RELATIVE
    HUMIDITY OBSERVATIONS.

INZ001>003-010>013-019-020-020600-
NORTHWEST INDIANA

CITY           SKY/WX    TMP DP  RH WIND       PRES   REMARKS
GARY /AIRPORT/ CLOUDY    47  47 100 NE9       29.96F FOG
KNOX *+        CLOUDY    50  46  87 NE6       29.94F
LA PORTE +     DRIZZLE  N/A N/A N/A NE7       29.96R
MICHIGAN CITY+ CLOUDY    46  46 100 NE5       29.97S
MONTICELLO +   CLOUDY    53  49  87 NE7       29.92F
RENSSELAER +   PTCLDY    50  48  93 NE9       29.92F FOG
VALPARAISO     CLOUDY    49  48  97 N8        29.95F

$$

LMZ046-743>745-020600-
SOUTHERN LAKE MICHIGAN

STATION/POSITION TIME  TEMP    WIND        PRES    WAVE
                       AIR SEA DIR/SP/G            HT
                 (UTC) (F)     (DEG/KT/KT) (MB)    (FT)
BURNS HARBOR     0419   47      30/ 12/ 23 1015.2S
MICHIGAN CITY    0400   47      30/ 18/ 20   N/A

$$

INZ004-005-014>016-021>024-020600-
NORTH CENTRAL INDIANA

CITY           SKY/WX    TMP DP  RH WIND       PRES   REMARKS
GOSHEN         CLOUDY    50  48  93 N9        29.96R
LOGANSPORT +   CLOUDY    54  54 100 N6        29.94R
PERU/GRISSOM   CLOUDY    54  54 100 NE6       29.92R
ROCHESTER +    CLOUDY    54  54 100 N5        29.95R
SOUTH BEND     LGT RAIN  48  46  93 NE9       29.95F
WARSAW +       CLOUDY    50  50 100 NE6       29.95R

$$

INZ006>009-017-018-025>027-020600-
NORTHEAST INDIANA

CITY           SKY/WX    TMP DP  RH WIND       PRES   REMARKS
ANGOLA *+      CLOUDY    48  37  66 E6        29.94R
AUBURN +       RAIN      50  46  87 E10       29.95R
FORT WAYNE     CLOUDY    52  49  89 NE12      29.95R FOG
HUNTINGTON +   CLOUDY    51  50  96 NE3       29.95R

$$

INZ028-029-035-036-043>045-051>053-020600-
WEST CENTRAL INDIANA

CITY           SKY/WX    TMP DP  RH WIND       PRES   REMARKS
CRAWFORDSVL +  CLOUDY    53  53 100 NW10      29.94R FOG
GREENCASTLE +  CLOUDY    57  57 100 NW3       29.94R
LAFAYETTE      CLOUDY    52  51  97 N6        29.93R FOG
TERRE HAUTE    CLOUDY    59  53  80 NW13G22   29.96R

$$

INZ030>032-037>040-046>048-054>057-064-065-020600-
CENTRAL INDIANA

CITY           SKY/WX    TMP DP  RH WIND       PRES   REMARKS
CP ATTERBURY + CLOUDY    61  59  94 W7        29.92R
FRANKFORT +      N/A     56  56 100 CALM      29.94R
GREENWOOD *+   CLOUDY    61  59  94 W3        29.92
INDIANAPOLIS   CLOUDY    59  57  93 W7        29.91R
-EAGLE CREEK   CLOUDY    60  57  89 W3        29.91R
KOKOMO *+      CLOUDY    55  52  88 NE7       29.92R
MARION +       CLOUDY    53  53 100 N9        29.93R
SHELBYVILLE    LGT RAIN  63  59  87 W9        29.90R
ZIONSVILLE +   CLOUDY    57  56  95 N8        29.92R

$$

INZ033-034-041-042-049-050-058-059-020600-
EAST CENTRAL INDIANA

CITY           SKY/WX    TMP DP  RH WIND       PRES   REMARKS
MUNCIE         CLOUDY    57  53  86 NE9       29.91R

$$

INZ060-061-067>069-081>083-085>088-020600-
SOUTHWEST INDIANA

CITY           SKY/WX    TMP DP  RH WIND       PRES   REMARKS
EVANSVILLE     CLEAR     62  50  64 NW10      29.96R
HUNTINGBURG *+ CLEAR     63  55  77 NW13G18   29.95R
WASHINGTON +   CLOUDY    61  59  91 NW10G17   29.95R

$$

INZ062-063-066-070>080-084-089>092-020600-
SOUTH CENTRAL AND SOUTHEAST INDIANA

CITY           SKY/WX    TMP DP  RH WIND       PRES   REMARKS
BLOOMINGTON    CLOUDY    61  57  87 NW9       29.93R
MADISON *+     CLOUDY    64  61  88 W6        29.91R
NORTH VERNON + LGT RAIN N/A N/A N/A CALM      29.93R
SEYMOUR +      CLOUDY    64  59  82 NW5       29.90R

$$





USA.gov is the U.S. government's official web portal to all federal, state and local government web resources and services.